Forside
METAR-TAF:

METAR-TAF

Lufthavne :

Okmulgee, Oklahoma, USA

Breddekreds: 35-40-05N, længdekreds: 095-56-55W, højde: 220 m

Aktuelle vejr

Denne rapport blev lavet for 6 timer og 3 minutter siden, kl. 15:55 UTC
Vind stille
Temperatur 10°C
Fugtighed 62%
Tryk 1021 hPa
Sigt: 16.1 km

METAR: KOKM 161555Z AUTO 00000KT 10SM 10/03 A3015 RMK AO2 T01010027

Tid: 15:58 (21:58 UTC)


TAF: fraværende

Vejrobservationer og prognoser fra mere end 4000 lufthavne (METAR og TAF).

De gule og røde prikker repræsenterer de meteorologiske stationer.

Flyt musen over at se navnet på stationen.

Så klik over at se vejr observationer og prognoser.

At skifte det kort: Klik på de grønne knapper med et sort kors for at zoome ind; på den grønne knap med en bindestreg for at zoome ud; eller på de grønne pile for tilstødende kort.


METAR-TAF: